, MO

(GMT )
Kansas City

Weather History for KMKC - April, 2013

Change the Weather History Date:

Sunday, April 21, 2013

  Actual Average Record
Temperature  
Mean Temperature 57 °F -  
Max Temperature 69 °F 65 °F 81 °F (2001)
Min Temperature 48 °F 46 °F 42 °F (2012)
Degree Days  
Heating Degree Days 8    
Growing Degree Days 7 (Base 50)    
Moisture  
Dew Point 37 °F    
Average Humidity 45    
Maximum Humidity 57    
Minimum Humidity 37    
Precipitation  
Precipitation 0.00 in - - ()
Sea Level Pressure  
Sea Level Pressure 30.16 in    
Wind  
Wind Speed 10 mph (South)    
Max Wind Speed 21 mph    
Max Gust Speed 26 mph    
Visibility 10 miles    
Events      
Averages and records for this station are not official NWS values.
T = Trace of Precipitation, MM = Missing Value Source: NWS Daily Summary

Daily Weather History Graph

Daily Weather History Graph

Search for Another Location

Airport or City:

Trip Planner

Search our weather history database for the weather conditions in past years. The results will help you decide how hot, cold, wet, or windy it might be!

Date:

Astronomy

Apr. 21, 2013 Rise Set
Actual Time 6:32 AM CDT 8:01 PM CDT
Civil Twilight 6:04 AM CDT 8:30 PM CDT
Nautical Twilight 5:30 AM CDT 9:03 PM CDT
Astronomical Twilight 4:55 AM CDT 9:39 PM CDT
Moon 3:49 PM CDT (4/21) 3:53 AM CDT (4/21)
Length of Visible Light 14h 25m
Length of Day
13h 29m
Waxing Gibbous, 80% of the Moon is Illuminated
Apr 21
Waxing Gibbous
Apr 25
Full
May 2
Last Quarter
May 9
New
May 17
First Quarter

Hourly Weather History & Observations

Time (CDT) Temp. Dew Point Humidity Pressure Visibility Wind Dir Wind Speed Gust Speed Precip Events Conditions
12:54 AM 48.9 °F 30.9 °F 50% 30.18 in 10.0 mi East 8.1 mph - N/A   Partly Cloudy
1:54 AM 48.9 °F 30.9 °F 50% 30.17 in 10.0 mi East 11.5 mph - N/A   Partly Cloudy
2:54 AM 50.0 °F 30.0 °F 46% 30.17 in 10.0 mi ESE 9.2 mph - N/A   Clear
3:54 AM 50.0 °F 30.0 °F 46% 30.17 in 10.0 mi ESE 9.2 mph - N/A   Clear
4:54 AM 51.1 °F 32.0 °F 48% 30.18 in 10.0 mi Variable 4.6 mph - N/A   Clear
5:54 AM 50.0 °F 34.0 °F 54% 30.19 in 10.0 mi Calm Calm - N/A   Clear
6:54 AM 52.0 °F 36.0 °F 54% 30.21 in 10.0 mi South 4.6 mph - N/A   Partly Cloudy
7:54 AM 53.1 °F 37.9 °F 57% 30.21 in 10.0 mi South 6.9 mph - N/A   Scattered Clouds
8:54 AM 57.0 °F 39.9 °F 53% 30.23 in 10.0 mi South 11.5 mph 17.3 mph N/A   Clear
9:54 AM 59.0 °F 39.9 °F 49% 30.22 in 10.0 mi South 17.3 mph 23.0 mph N/A   Clear
10:54 AM 62.1 °F 41.0 °F 46% 30.22 in 10.0 mi South 12.7 mph - N/A   Mostly Cloudy
11:54 AM 63.0 °F 37.9 °F 40% 30.21 in 10.0 mi South 17.3 mph 24.2 mph N/A   Overcast
12:54 PM 64.9 °F 39.0 °F 39% 30.19 in 10.0 mi South 16.1 mph 24.2 mph N/A   Overcast
1:54 PM 66.0 °F 41.0 °F 40% 30.16 in 10.0 mi SSW 17.3 mph 21.9 mph N/A   Overcast
2:54 PM 64.9 °F 41.0 °F 42% 30.15 in 10.0 mi SSW 17.3 mph 24.2 mph N/A   Overcast
3:54 PM 66.0 °F 42.1 °F 42% 30.12 in 10.0 mi South 17.3 mph 24.2 mph N/A   Mostly Cloudy
4:54 PM 66.0 °F 39.0 °F 37% 30.11 in 10.0 mi South 20.7 mph 26.5 mph N/A   Overcast
5:54 PM 66.9 °F 39.9 °F 37% 30.10 in 10.0 mi South 12.7 mph 21.9 mph N/A   Clear
6:54 PM 66.9 °F 39.9 °F 37% 30.10 in 10.0 mi South 12.7 mph - N/A   Mostly Cloudy
7:54 PM 64.0 °F 37.9 °F 38% 30.10 in 10.0 mi South 10.4 mph - N/A   Clear
8:54 PM 60.1 °F 37.9 °F 44% 30.12 in 10.0 mi South 3.5 mph - N/A   Clear
9:54 PM 61.0 °F 37.0 °F 41% 30.14 in 10.0 mi Calm Calm - N/A   Clear
10:54 PM 57.9 °F 37.9 °F 47% 30.14 in 10.0 mi South 4.6 mph - N/A   Clear
11:54 PM 57.9 °F 37.9 °F 47% 30.14 in 10.0 mi South 8.1 mph - N/A   Clear